Regional Weather Roundup
Issued by NWS

Home | Current Version | Previous Version | Text Only | Print | Product List | Glossary Off
Versions: 1 2 3 4 5 6 7 8 9 10 11 12 13 14 15 16 17 18 19 20 21 22 23 24 25 26 27 28 29 30 31 32 33 34 35 36 37 38 39 40 41 42 43 44 45 46 47 48 49 50

000
ASUS43 KIND 300809
RWRIN

WEATHER ROUNDUP FOR INDIANA
NATIONAL WEATHER SERVICE INDIANAPOLIS IN
400 AM EDT TUE SEP 30 2014

NOTE: "FAIR" INDICATES FEW OR NO CLOUDS BELOW 12,000 FEET WITH NO
SIGNIFICANT WEATHER AND/OR OBSTRUCTIONS TO VISIBILITY.

* - STATION DOES NOT REPORT WEATHER SUCH AS PRECIPITATION OR FOG.

+ - STATION NOT QUALITY CONTROLLED BY THE NATIONAL WEATHER SERVICE.
    USE DATA WITH CAUTION...ESPECIALLY DEWPOINT AND RELATIVE
    HUMIDITY OBSERVATIONS.

INZ001>003-010>013-019-020-300900-
NORTHWEST INDIANA

CITY           SKY/WX    TMP DP  RH WIND       PRES   REMARKS
GARY /AIRPORT/ CLOUDY    56  50  80 N16G23    30.03R
KNOX *+        CLOUDY    54  51  89 N12G17    29.98S
LA PORTE +     CLOUDY    55  55  99 N16G24    29.99F
MICHIGAN CITY+ CLOUDY    54  46  76 N9        30.01S
MONTICELLO +   CLOUDY    58  55  92 N6        29.96S
RENSSELAER +   CLOUDY    55  54  94 N9        29.99S
VALPARAISO     CLOUDY    54  51  90 VRB7      30.00S

$$

LMZ046-743>745-300900-
SOUTHERN LAKE MICHIGAN

STATION/POSITION TIME  TEMP WIND        PRES
                       AIR  DIR/SP/G
                 (UTC) (F)  (DEG/KT/KT) (MB)
MICHIGAN CITY    0800   55  350/ 22/ 26   N/A

$$

INZ004-005-014>016-021>024-300900-
NORTH CENTRAL INDIANA

CITY           SKY/WX    TMP DP  RH WIND       PRES   REMARKS
LOGANSPORT +   CLOUDY    55  54  94 NW9       29.96S
PERU/GRISSOM   CLOUDY    58  58 100 N9        29.95S
ROCHESTER +    MOCLDY    59  55  88 NW10      29.96S
SOUTH BEND     CLOUDY    54  49  83 N17G23    29.99S
WARSAW +       LGT RAIN  55  54  94 N6        29.94F

$$

INZ006>009-017-018-025>027-300900-
NORTHEAST INDIANA

CITY           SKY/WX    TMP DP  RH WIND       PRES   REMARKS
ANGOLA *+      CLOUDY    57  57 100 N8        29.93S
AUBURN +       MOCLDY    61  55  82 NW9G16    29.93S FOG
FORT WAYNE     CLOUDY    60  57  89 NW8       29.93S FOG
HUNTINGTON +   CLOUDY    58  57  96 NW8       29.93S FOG

$$

INZ028-029-035-036-043>045-051>053-300900-
WEST CENTRAL INDIANA

CITY           SKY/WX    TMP DP  RH WIND       PRES   REMARKS
GREENCASTLE +  CLEAR     54  54 100 CALM      29.94S
LAFAYETTE      CLOUDY    58  56  93 N8        29.97R
TERRE HAUTE    CLEAR     54  53  97 CALM      29.93F

$$

INZ030>032-037>040-046>048-054>057-064-065-300900-
CENTRAL INDIANA

CITY           SKY/WX    TMP DP  RH WIND       PRES   REMARKS
CP ATTERBURY + CLEAR     52  50  93 CALM      29.94S
FRANKFORT +    CLOUDY   N/A N/A N/A N5        29.96S FOG
INDIANAPOLIS   PTCLDY    58  54  86 SW6       29.92F
-EAGLE CREEK   CLEAR     62  54  74 NW5       29.93S
KOKOMO *+      MOCLDY    59  54  82 NW6       29.95S
MARION +       MOCLDY    58  55  91 NW5       29.94F FOG
MT COMFORT *+  CLEAR     54  50  87 CALM      29.94R
SHELBYVILLE    CLEAR     55  51  86 CALM      29.93S
ZIONSVILLE +   CLEAR     58  53  83 N7        29.95S

$$

INZ033-034-041-042-049-050-058-059-300900-
EAST CENTRAL INDIANA

CITY           SKY/WX    TMP DP  RH WIND       PRES   REMARKS
MUNCIE         CLEAR     58  51  78 W5        29.93R

$$

INZ060-061-067>069-081>083-085>088-300900-
SOUTHWEST INDIANA

CITY           SKY/WX    TMP DP  RH WIND       PRES   REMARKS
EVANSVILLE     CLEAR     60  56  86 CALM      29.94F
WASHINGTON +   CLEAR     53  53 100 CALM      29.93S

$$

INZ062-063-066-070>080-084-089>092-300900-
SOUTH CENTRAL AND SOUTHEAST INDIANA

CITY           SKY/WX    TMP DP  RH WIND       PRES   REMARKS
BLOOMINGTON    CLEAR     54  52  93 CALM      29.94F

$$




USA.gov is the U.S. government's official web portal to all federal, state and local government web resources and services.